Time,TemperatureF,DewpointF,PressureIn,WindDirection,WindDirectionDegrees,WindSpeedMPH,WindSpeedGustMPH,Humidity,HourlyPrecipIn,Conditions,Clouds,dailyrainin,SoftwareType,DateUTC
2013-06-13 00:04:00,54.8,53.0,29.48,ESE,108,0.0,-999.0,94,-99.99,,,0.10,weatherlink.com 1.10,2013-06-12 23:04:00,
2013-06-13 00:19:00,54.8,53.0,29.48,ESE,108,0.0,-999.0,95,-99.99,,,0.10,weatherlink.com 1.10,2013-06-12 23:19:00,
2013-06-13 00:34:00,54.9,53.0,29.48,ESE,108,0.0,-999.0,94,-99.99,,,0.10,weatherlink.com 1.10,2013-06-12 23:34:00,
2013-06-13 00:50:00,54.8,53.0,29.49,ESE,108,0.0,-999.0,94,-99.99,,,0.10,weatherlink.com 1.10,2013-06-12 23:50:00,
2013-06-13 01:04:00,54.8,53.0,29.49,ESE,108,0.0,-999.0,94,-99.99,,,0.10,weatherlink.com 1.10,2013-06-13 00:04:00,
2013-06-13 01:19:00,54.6,53.0,29.49,East,82,0.0,-999.0,95,-99.99,,,0.10,weatherlink.com 1.10,2013-06-13 00:19:00,
2013-06-13 01:34:00,54.7,53.0,29.48,East,80,0.0,-999.0,95,-99.99,,,0.10,weatherlink.com 1.10,2013-06-13 00:34:00,
2013-06-13 01:49:00,54.6,53.0,29.48,ENE,67,0.0,-999.0,95,-99.99,,,0.10,weatherlink.com 1.10,2013-06-13 00:49:00,
2013-06-13 02:04:00,54.7,53.0,29.48,ENE,67,0.0,-999.0,95,-99.99,,,0.10,weatherlink.com 1.10,2013-06-13 01:04:00,
2013-06-13 02:19:00,54.9,54.0,29.49,ENE,67,0.0,-999.0,95,-99.99,,,0.10,weatherlink.com 1.10,2013-06-13 01:19:00,
2013-06-13 02:34:00,54.9,54.0,29.49,ENE,67,0.0,-999.0,95,-99.99,,,0.10,weatherlink.com 1.10,2013-06-13 01:34:00,
2013-06-13 02:49:00,54.9,54.0,29.49,ENE,67,0.0,-999.0,95,-99.99,,,0.10,weatherlink.com 1.10,2013-06-13 01:49:00,
2013-06-13 03:04:00,54.9,54.0,29.49,ENE,67,0.0,-999.0,95,-99.99,,,0.11,weatherlink.com 1.10,2013-06-13 02:04:00,
2013-06-13 03:19:00,55.0,54.0,29.50,ENE,67,0.0,-999.0,95,-99.99,,,0.11,weatherlink.com 1.10,2013-06-13 02:19:00,
2013-06-13 03:34:00,55.0,54.0,29.50,NNW,342,0.0,-999.0,95,-99.99,,,0.11,weatherlink.com 1.10,2013-06-13 02:34:00,
2013-06-13 03:49:00,54.6,53.0,29.51,North,5,0.0,-999.0,95,-99.99,,,0.12,weatherlink.com 1.10,2013-06-13 02:49:00,
2013-06-13 04:04:00,54.3,53.0,29.51,North,355,0.0,-999.0,95,-99.99,,,0.12,weatherlink.com 1.10,2013-06-13 03:04:00,
2013-06-13 04:19:00,54.2,53.0,29.52,North,360,0.0,-999.0,95,-99.99,,,0.13,weatherlink.com 1.10,2013-06-13 03:19:00,
2013-06-13 04:34:00,53.8,52.0,29.52,NE,34,0.0,-999.0,95,-99.99,,,0.13,weatherlink.com 1.10,2013-06-13 03:34:00,
2013-06-13 04:49:00,53.3,52.0,29.53,NE,34,0.0,-999.0,95,-99.99,,,0.13,weatherlink.com 1.10,2013-06-13 03:49:00,
2013-06-13 05:04:00,52.7,51.0,29.54,NNE,28,0.0,-999.0,95,-99.99,,,0.13,weatherlink.com 1.10,2013-06-13 04:04:00,
2013-06-13 05:19:00,52.6,51.0,29.55,NNE,14,0.0,-999.0,95,-99.99,,,0.13,weatherlink.com 1.10,2013-06-13 04:19:00,
2013-06-13 05:34:00,52.5,51.0,29.55,North,5,0.0,-999.0,95,-99.99,,,0.13,weatherlink.com 1.10,2013-06-13 04:34:00,
2013-06-13 05:49:00,52.6,51.0,29.56,North,5,0.0,-999.0,95,-99.99,,,0.14,weatherlink.com 1.10,2013-06-13 04:49:00,
2013-06-13 06:04:00,52.8,52.0,29.57,NNW,337,0.0,-999.0,95,-99.99,,,0.14,weatherlink.com 1.10,2013-06-13 05:04:00,
2013-06-13 06:19:00,52.5,51.0,29.58,NW,315,0.0,-999.0,95,-99.99,,,0.14,weatherlink.com 1.10,2013-06-13 05:19:00,
2013-06-13 06:34:00,52.0,51.0,29.59,NW,311,0.0,-999.0,95,-99.99,,,0.16,weatherlink.com 1.10,2013-06-13 05:34:00,
2013-06-13 06:49:00,51.6,50.0,29.59,NNW,329,0.0,-999.0,95,-99.99,,,0.16,weatherlink.com 1.10,2013-06-13 05:49:00,
2013-06-13 07:04:00,51.1,50.0,29.60,North,355,0.0,-999.0,95,-99.99,,,0.16,weatherlink.com 1.10,2013-06-13 06:04:00,
2013-06-13 07:19:00,50.4,49.0,29.61,NW,317,0.0,-999.0,94,-99.99,,,0.16,weatherlink.com 1.10,2013-06-13 06:19:00,
2013-06-13 07:34:00,50.0,48.0,29.62,NW,305,0.0,-999.0,94,-99.99,,,0.16,weatherlink.com 1.10,2013-06-13 06:34:00,
2013-06-13 07:49:00,49.7,48.0,29.64,NW,304,0.0,-999.0,94,-99.99,,,0.16,weatherlink.com 1.10,2013-06-13 06:49:00,
2013-06-13 08:04:00,49.9,48.0,29.65,NW,312,0.0,-999.0,93,-99.99,,,0.16,weatherlink.com 1.10,2013-06-13 07:04:00,
2013-06-13 08:19:00,50.2,48.0,29.66,West,267,0.0,-999.0,92,-99.99,,,0.16,weatherlink.com 1.10,2013-06-13 07:19:00,
2013-06-13 08:34:00,50.6,48.0,29.66,West,274,0.0,-999.0,92,-99.99,,,0.16,weatherlink.com 1.10,2013-06-13 07:34:00,
2013-06-13 08:49:00,51.0,49.0,29.67,WNW,283,0.0,-999.0,92,-99.99,,,0.16,weatherlink.com 1.10,2013-06-13 07:49:00,
2013-06-13 09:04:00,51.2,49.0,29.68,West,277,0.0,-999.0,92,-99.99,,,0.16,weatherlink.com 1.10,2013-06-13 08:04:00,
2013-06-13 09:20:00,51.3,49.0,29.69,WSW,257,0.0,-999.0,92,-99.99,,,0.17,weatherlink.com 1.10,2013-06-13 08:20:00,
2013-06-13 09:35:00,51.7,50.0,29.69,WNW,288,0.0,-999.0,93,-99.99,,,0.17,weatherlink.com 1.10,2013-06-13 08:35:00,
2013-06-13 09:50:00,52.2,50.0,29.69,West,281,0.0,-999.0,92,-99.99,,,0.17,weatherlink.com 1.10,2013-06-13 08:50:00,
2013-06-13 10:05:00,52.7,51.0,29.69,WNW,290,0.0,-999.0,92,-99.99,,,0.17,weatherlink.com 1.10,2013-06-13 09:05:00,
2013-06-13 10:20:00,53.3,51.0,29.70,West,262,0.0,-999.0,90,-99.99,,,0.17,weatherlink.com 1.10,2013-06-13 09:20:00,
2013-06-13 10:35:00,54.1,51.0,29.70,West,275,0.0,-999.0,88,-99.99,,,0.00,weatherlink.com 1.10,2013-06-13 09:35:00,
2013-06-13 10:50:00,54.6,50.0,29.70,WNW,296,0.0,-999.0,85,-99.99,,,0.01,weatherlink.com 1.10,2013-06-13 09:50:00,
2013-06-13 11:05:00,55.4,50.0,29.70,West,267,0.0,-999.0,82,-99.99,,,0.01,weatherlink.com 1.10,2013-06-13 10:05:00,
2013-06-13 11:20:00,55.8,51.0,29.70,West,268,0.0,-999.0,83,-99.99,,,0.01,weatherlink.com 1.10,2013-06-13 10:20:00,
2013-06-13 11:35:00,56.5,50.0,29.71,WNW,299,0.0,-999.0,79,-99.99,,,0.01,weatherlink.com 1.10,2013-06-13 10:35:00,
2013-06-13 11:50:00,57.3,49.0,29.71,WNW,290,0.0,-999.0,74,-99.99,,,0.01,weatherlink.com 1.10,2013-06-13 10:50:00,
2013-06-13 12:05:00,57.0,49.0,29.72,West,275,0.0,-999.0,75,-99.99,,,0.01,weatherlink.com 1.10,2013-06-13 11:05:00,
2013-06-13 12:20:00,56.4,50.0,29.73,WSW,254,0.0,-999.0,78,-99.99,,,0.01,weatherlink.com 1.10,2013-06-13 11:20:00,
2013-06-13 12:35:00,56.4,50.0,29.73,NW,315,0.0,-999.0,80,-99.99,,,0.01,weatherlink.com 1.10,2013-06-13 11:35:00,
2013-06-13 12:50:00,57.3,49.0,29.73,NW,310,0.0,-999.0,73,-99.99,,,0.01,weatherlink.com 1.10,2013-06-13 11:50:00,
2013-06-13 13:05:00,58.8,50.0,29.73,NW,313,0.0,-999.0,73,-99.99,,,0.01,weatherlink.com 1.10,2013-06-13 12:05:00,
2013-06-13 13:20:00,59.7,51.0,29.73,WSW,257,0.0,-999.0,72,-99.99,,,0.01,weatherlink.com 1.10,2013-06-13 12:20:00,
2013-06-13 13:35:00,60.7,50.0,29.73,West,279,0.0,-999.0,67,-99.99,,,0.01,weatherlink.com 1.10,2013-06-13 12:35:00,
2013-06-13 13:50:00,61.6,48.0,29.73,West,267,0.0,-999.0,62,-99.99,,,0.01,weatherlink.com 1.10,2013-06-13 12:50:00,
2013-06-13 14:05:00,60.2,50.0,29.73,West,271,0.0,-999.0,68,-99.99,,,0.01,weatherlink.com 1.10,2013-06-13 13:05:00,
2013-06-13 14:20:00,60.7,48.0,29.73,West,263,0.0,-999.0,63,-99.99,,,0.01,weatherlink.com 1.10,2013-06-13 13:20:00,
2013-06-13 14:35:00,61.4,48.0,29.74,WNW,295,0.0,-999.0,61,-99.99,,,0.01,weatherlink.com 1.10,2013-06-13 13:35:00,
2013-06-13 14:50:00,60.8,49.0,29.75,West,265,0.0,-999.0,65,-99.99,,,0.01,weatherlink.com 1.10,2013-06-13 13:50:00,
2013-06-13 15:05:00,59.6,49.0,29.75,West,266,0.0,-999.0,68,-99.99,,,0.01,weatherlink.com 1.10,2013-06-13 14:05:00,
2013-06-13 15:20:00,61.2,50.0,29.74,West,278,0.0,-999.0,66,-99.99,,,0.01,weatherlink.com 1.10,2013-06-13 14:20:00,
2013-06-13 15:35:00,61.5,50.0,29.75,West,269,0.0,-999.0,66,-99.99,,,0.01,weatherlink.com 1.10,2013-06-13 14:35:00,
2013-06-13 15:50:00,59.1,52.0,29.75,WNW,287,0.0,-999.0,77,-99.99,,,0.05,weatherlink.com 1.10,2013-06-13 14:50:00,
2013-06-13 16:05:00,59.6,49.0,29.75,NW,319,0.0,-999.0,69,-99.99,,,0.05,weatherlink.com 1.10,2013-06-13 15:05:00,
2013-06-13 16:20:00,61.2,49.0,29.75,NW,306,0.0,-999.0,64,-99.99,,,0.05,weatherlink.com 1.10,2013-06-13 15:20:00,
2013-06-13 16:35:00,60.9,48.0,29.77,WNW,300,0.0,-999.0,62,-99.99,,,0.05,weatherlink.com 1.10,2013-06-13 15:35:00,
2013-06-13 16:50:00,60.3,48.0,29.77,West,263,0.0,-999.0,64,-99.99,,,0.05,weatherlink.com 1.10,2013-06-13 15:50:00,
2013-06-13 17:05:00,61.1,49.0,29.77,West,259,0.0,-999.0,64,-99.99,,,0.05,weatherlink.com 1.10,2013-06-13 16:05:00,
2013-06-13 17:20:00,61.4,48.0,29.77,WNW,298,0.0,-999.0,61,-99.99,,,0.05,weatherlink.com 1.10,2013-06-13 16:20:00,
2013-06-13 17:35:00,59.8,47.0,29.77,NW,319,0.0,-999.0,63,-99.99,,,0.05,weatherlink.com 1.10,2013-06-13 16:35:00,
2013-06-13 17:50:00,61.3,47.0,29.77,WSW,248,0.0,-999.0,60,-99.99,,,0.05,weatherlink.com 1.10,2013-06-13 16:50:00,
2013-06-13 18:05:00,58.0,47.0,29.79,NW,320,0.0,-999.0,67,-99.99,,,0.06,weatherlink.com 1.10,2013-06-13 17:05:00,
2013-06-13 18:20:00,56.9,48.0,29.78,NNW,329,0.0,-999.0,72,-99.99,,,0.06,weatherlink.com 1.10,2013-06-13 17:20:00,
2013-06-13 18:35:00,58.8,49.0,29.78,WNW,289,0.0,-999.0,71,-99.99,,,0.06,weatherlink.com 1.10,2013-06-13 17:35:00,
2013-06-13 18:51:00,60.2,48.0,29.79,West,259,0.0,-999.0,64,-99.99,,,0.06,weatherlink.com 1.10,2013-06-13 17:51:00,
2013-06-13 19:06:00,60.8,44.0,29.79,West,269,0.0,-999.0,55,-99.99,,,0.06,weatherlink.com 1.10,2013-06-13 18:06:00,
2013-06-13 19:21:00,61.1,45.0,29.79,WSW,253,0.0,-999.0,55,-99.99,,,0.06,weatherlink.com 1.10,2013-06-13 18:21:00,
2013-06-13 19:36:00,60.4,43.0,29.80,West,263,0.0,-999.0,54,-99.99,,,0.06,weatherlink.com 1.10,2013-06-13 18:36:00,
2013-06-13 19:51:00,60.2,44.0,29.81,West,271,0.0,-999.0,55,-99.99,,,0.06,weatherlink.com 1.10,2013-06-13 18:51:00,
2013-06-13 20:06:00,59.1,44.0,29.81,West,269,0.0,-999.0,58,-99.99,,,0.06,weatherlink.com 1.10,2013-06-13 19:06:00,
2013-06-13 20:21:00,58.8,45.0,29.81,West,270,0.0,-999.0,60,-99.99,,,0.06,weatherlink.com 1.10,2013-06-13 19:21:00,
2013-06-13 20:36:00,58.5,44.0,29.82,West,275,0.0,-999.0,60,-99.99,,,0.06,weatherlink.com 1.10,2013-06-13 19:36:00,
2013-06-13 20:51:00,58.0,44.0,29.82,West,281,0.0,-999.0,61,-99.99,,,0.06,weatherlink.com 1.10,2013-06-13 19:51:00,
2013-06-13 21:06:00,57.5,45.0,29.82,West,266,0.0,-999.0,63,-99.99,,,0.06,weatherlink.com 1.10,2013-06-13 20:06:00,
2013-06-13 21:21:00,57.2,45.0,29.83,West,262,0.0,-999.0,65,-99.99,,,0.06,weatherlink.com 1.10,2013-06-13 20:21:00,
2013-06-13 21:36:00,56.7,45.0,29.83,WNW,282,0.0,-999.0,66,-99.99,,,0.06,weatherlink.com 1.10,2013-06-13 20:36:00,
2013-06-13 21:51:00,56.3,46.0,29.84,WSW,252,0.0,-999.0,68,-99.99,,,0.06,weatherlink.com 1.10,2013-06-13 20:51:00,
2013-06-13 22:06:00,55.9,46.0,29.84,WSW,252,0.0,-999.0,69,-99.99,,,0.06,weatherlink.com 1.10,2013-06-13 21:06:00,
2013-06-13 22:21:00,55.4,46.0,29.84,WSW,254,0.0,-999.0,70,-99.99,,,0.06,weatherlink.com 1.10,2013-06-13 21:21:00,
2013-06-13 22:36:00,55.0,46.0,29.84,WSW,254,0.0,-999.0,72,-99.99,,,0.06,weatherlink.com 1.10,2013-06-13 21:36:00,
2013-06-13 22:51:00,54.6,46.0,29.85,WSW,253,0.0,-999.0,73,-99.99,,,0.06,weatherlink.com 1.10,2013-06-13 21:51:00,
2013-06-13 23:06:00,54.1,46.0,29.84,WSW,253,0.0,-999.0,74,-99.99,,,0.06,weatherlink.com 1.10,2013-06-13 22:06:00,
2013-06-13 23:21:00,53.6,46.0,29.85,WSW,253,0.0,-999.0,75,-99.99,,,0.06,weatherlink.com 1.10,2013-06-13 22:21:00,
2013-06-13 23:36:00,53.4,46.0,29.84,WSW,253,0.0,-999.0,76,-99.99,,,0.06,weatherlink.com 1.10,2013-06-13 22:36:00,
2013-06-13 23:51:00,53.1,46.0,29.84,WSW,253,0.0,-999.0,77,-99.99,,,0.06,weatherlink.com 1.10,2013-06-13 22:51:00,